This is the latest recevied weather packets stored in our database for station/object 9W8AKN-L. If no packets are shown the sender has not sent any weather packets the latest 10 day(s).
| Time | Temp. | Humidity | Pressure | Rain* | Wind** | Luminosity | Snow |
|---|---|---|---|---|---|---|---|
| 1778092539 | 27.78° C | 95% | 1009.2 hPa | - | - | - | - |
| 1778091639 | 28.33° C | 94% | 1009.2 hPa | - | - | - | - |
| 1778090739 | 28.33° C | 93% | 1009.1 hPa | - | - | - | - |
| 1778089839 | 28.33° C | 93% | 1009.5 hPa | - | - | - | - |
| 1778088939 | 28.33° C | 93% | 1009.5 hPa | - | - | - | - |
| 1778088038 | 28.33° C | 92% | 1009.9 hPa | - | - | - | - |
| 1778087139 | 28.33° C | 91% | 1010 hPa | - | - | - | - |
| 1778086238 | 28.33° C | 91% | 1010.3 hPa | - | - | - | - |
| 1778085338 | 28.33° C | 90% | 1010.3 hPa | - | - | - | - |
| 1778084438 | 28.33° C | 89% | 1010.4 hPa | - | - | - | - |
| 1778083538 | 28.89° C | 88% | 1010.4 hPa | - | - | - | - |
| 1778082638 | 28.89° C | 88% | 1010.4 hPa | - | - | - | - |
| 1778081738 | 28.89° C | 87% | 1010.7 hPa | - | - | - | - |
| 1778080838 | 28.89° C | 86% | 1010.5 hPa | - | - | - | - |
| 1778079938 | 28.89° C | 86% | 1010.2 hPa | - | - | - | - |
| 1778078138 | 28.89° C | 84% | 1010 hPa | - | - | - | - |
| 1778077238 | 29.44° C | 79% | 1009.8 hPa | - | - | - | - |
| 1778076338 | 29.44° C | 77% | 1009.6 hPa | - | - | - | - |
| 1778075438 | 29.44° C | 79% | 1009.6 hPa | - | - | - | - |
| 1778074538 | 29.44° C | 78% | 1009.4 hPa | - | - | - | - |
| 1778073637 | 30° C | 75% | 1009.3 hPa | - | - | - | - |
| 1778072737 | 30° C | 77% | 1009.2 hPa | - | - | - | - |
| 1778071837 | 30° C | 76% | 1009 hPa | - | - | - | - |
| 1778070937 | 30° C | 81% | 1008.9 hPa | - | - | - | - |
| 1778070037 | 30° C | 76% | 1008.8 hPa | - | - | - | - |
* Rain since midnight (hover to see other rain measurements)
** Current wind speed in m/s (hover to see current wind gust speed)